Content
SEND FEEDBACK

Daily
Averages
Monthly
Summary
United States of America

PYGA BEACH, GUAM


Home > North America > United States > Guam
Elevation: 20 feet     Latitude: 13 17N     Longitude: 144 39E

WEATHER
 
SELECT A DAY
Number of Records: 350,245;   Date Range: 1/1/95 - 9/30/14
 
SHARE

PRINT THIS DATA

[ ← Previous Day ]
WEATHER ALMANAC - FEBRUARY 22, 2014
[ Next Day → ]
[ °C ]   °F
Weather ElementAverageHighLow
Temperature78.8 °F82.6 °F (12:58 pm)75.2 °F (3:14 pm)
Dewpoint71.6 °F78.8 °F (11:25 am) (7:00 pm)
Humidity90.7 %100 % (3:58 am)82 % (12:58 pm)
Barometer29.85 in29.90 in (9:38 am)29.78 in (3:58 pm)
Wind Speed10.9 mph16.1 mph (11:53 pm)
Wind Gust23 mph (1:58 pm)
Weather ElementAverage
Visibility8.8 mi
Wind DirectionENE (66.4 °)

Weather ElementTotal
Precipitation0.23 in
Cooling Degree Days13.9 (Base 65)
Growing Degree Days28.9 (Base 50)
Averaged from 70 records on February 22, 2014
WEATHER CONDITIONS BREAKOUT
WIND DIRECTION BREAKOUT
WEATHER BY HOUR - FEBRUARY 22, 2014
[ °C ]   °F
Local TimeTemperatureDewpointHumidityBarometerVisibilityWind DirectionWind SpeedGust SpeedPrecipitationEventsConditions
1:58 AM77.4 °F75.6 °F94 %29.82 in10.0 miENE (60°)6.9 mphScattered Clouds
2:58 AM76.3 °F75.9 °F99 %29.81 in10.0 miENE (70°)5.8 mphPartly Cloudy
3:58 AM76.1 °F76.1 °F100 %29.81 in10.0 miENE (60°)5.8 mphScattered Clouds
4:58 AM76.1 °F75.2 °F97 %29.81 in10.0 miNE (50°)2.3 mphClear
5:58 AM76.1 °F76.1 °F100 %29.82 in10.0 miENE (60°)6.9 mphScattered Clouds
6:58 AM75.6 °F75.4 °F99 %29.84 in10.0 miENE (60°)5.8 mphPartly Cloudy
7:58 AM78.6 °F75.4 °F90 %29.86 in10.0 miENE (60°)8.1 mphClear
8:58 AM79.9 °F76.1 °F88 %29.86 in10.0 miENE (60°)8.1 mphScattered Clouds
9:38 AM80.6 °F77.0 °F89 %29.90 in10.0 miENE (70°)10.4 mphMostly Cloudy
9:53 AM80.6 °F77.0 °F89 %29.90 in10.0 miNE (50°)10.4 mphMostly Cloudy
9:58 AM80.6 °F76.1 °F86 %29.87 in10.0 miENE (70°)11.5 mphMostly Cloudy
10:03 AM80.6 °F77.0 °F89 %29.90 in10.0 miENE (60°)11.5 mphMostly Cloudy
10:08 AM82.4 °F77.0 °F84 %29.90 in10.0 miEast (80°)11.5 mphScattered Clouds
10:33 AM80.6 °F77.0 °F89 %29.89 in10.0 miENE (70°)11.5 mphMostly Cloudy
10:38 AM80.6 °F77.0 °F89 %29.89 in10.0 miENE (60°)11.5 mphMostly Cloudy
10:43 AM82.4 °F77.0 °F84 %29.89 in10.0 miENE (70°)10.4 mphMostly Cloudy
10:58 AM81.5 °F76.8 °F86 %29.86 in10.0 miENE (60°)9.2 mphMostly Cloudy
11:08 AM80.6 °F77.0 °F89 %29.88 in10.0 miEast (80°)10.4 mphScattered Clouds
11:18 AM82.4 °F77.0 °F84 %29.88 in10.0 miNE (40°)11.5 mphMostly Cloudy
11:20 AM82.4 °F77.0 °F84 %29.88 in7.0 miENE (60°)11.5 mphRainHeavy Rain
11:25 AM80.6 °F78.8 °F94 %29.88 in5.0 miNE (50°)9.2 mphRainLight Rain
11:30 AM78.8 °F78.8 °F100 %29.87 in6.0 miNE (50°)12.7 mphRainLight Rain
11:34 AM80.6 °F78.8 °F94 %29.87 in10.0 miENE (70°)11.5 mphMostly Cloudy
11:58 AM81.3 °F78.1 °F90 %29.83 in10.0 miEast (80°)10.4 mph0.01 inMostly Cloudy
12:03 PM82.4 °F78.8 °F89 %29.86 in10.0 miEast (80°)10.4 mphScattered Clouds
12:58 PM82.6 °F76.5 °F82 %29.81 in10.0 miEast (80°)13.8 mphScattered Clouds
1:18 PM82.4 °F77.0 °F84 %29.83 in10.0 miENE (70°)13.8 mph20.7 mphMostly Cloudy
1:28 PM82.4 °F77.0 °F84 %29.83 in10.0 miEast (80°)13.8 mphMostly Cloudy
1:33 PM82.4 °F77.0 °F84 %29.83 in10.0 miEast (80°)12.7 mphMostly Cloudy
1:38 PM82.4 °F77.0 °F84 %29.83 in10.0 miENE (70°)10.4 mph19.6 mphMostly Cloudy
1:43 PM82.4 °F77.0 °F84 %29.83 in10.0 miEast (80°)13.8 mph19.6 mphMostly Cloudy
1:53 PM82.4 °F77.0 °F84 %29.83 in10.0 miENE (60°)15.0 mphMostly Cloudy
1:58 PM82.6 °F76.6 °F82 %29.79 in10.0 miENE (60°)15.0 mph23.0 mphMostly Cloudy
2:33 PM80.6 °F77.0 °F89 %29.82 in10.0 miNE (50°)13.8 mph20.7 mphMostly Cloudy
2:58 PM78.8 °F77.0 °F94 %29.79 in7.0 miENE (70°)13.8 mphMostly Cloudy
2:59 PM78.8 °F77.0 °F94 %29.82 in4.0 miENE (70°)12.7 mphRainLight Rain
3:04 PM77.0 °F77.0 °F100 %29.82 in2.5 miEast (80°)13.8 mphRainLight Rain
3:09 PM77.0 °F77.0 °F100 %29.82 in3.0 miENE (60°)12.7 mphRainLight Rain
3:14 PM75.2 °F75.2 °F100 %29.82 in4.0 miENE (60°)13.8 mph20.7 mphRainLight Rain
3:19 PM75.2 °F75.2 °F100 %29.82 in3.0 miENE (70°)12.7 mphRainRain
3:24 PM75.2 °F75.2 °F100 %29.81 in3.0 miENE (70°)10.4 mph19.6 mphRainLight Rain
3:43 PM77.0 °F73.4 °F89 %29.81 in10.0 miENE (70°)4.6 mphMostly Cloudy
3:48 PM77.0 °F73.4 °F89 %29.81 in10.0 miENE (60°)8.1 mphScattered Clouds
3:58 PM78.8 °F73.4 °F83 %29.78 in10.0 miEast (80°)9.2 mph0.05 inScattered Clouds
4:16 PM78.8 °F73.4 °F83 %29.81 in10.0 miENE (70°)11.5 mphRainLight Rain
4:25 PM78.8 °F73.4 °F83 %29.81 in10.0 miEast (80°)13.8 mphScattered Clouds
4:58 PM79.5 °F75.9 °F89 %29.79 in10.0 miEast (80°)13.8 mph0.00 inClear
5:58 PM79.0 °F75.9 °F90 %29.81 in10.0 miENE (70°)12.7 mphScattered Clouds
6:58 PM78.4 °F74.8 °F89 %29.82 in10.0 miEast (80°)15.0 mphMostly Cloudy
7:58 PM78.6 °F74.5 °F87 %29.83 in10.0 miENE (70°)12.7 mphMostly Cloudy
8:58 PM78.8 °F75.4 °F89 %29.86 in10.0 miENE (70°)13.8 mphMostly Cloudy
9:08 PM78.8 °F75.2 °F89 %29.88 in10.0 miENE (70°)10.4 mphMostly Cloudy
9:13 PM78.8 °F75.2 °F89 %29.88 in10.0 miENE (70°)10.4 mphMostly Cloudy
9:18 PM78.8 °F75.2 °F89 %29.88 in8.0 miEast (100°)12.7 mph19.6 mphRainLight Rain
9:28 PM77.0 °F73.4 °F89 %29.88 in3.0 miEast (90°)8.1 mph20.7 mphRainLight Rain
9:35 PM77.0 °F75.2 °F94 %29.88 in10.0 miEast (80°)8.1 mphMostly Cloudy
9:37 PM77.0 °F75.2 °F94 %29.88 in10.0 miEast (80°)8.1 mphRainLight Rain
9:47 PM77.0 °F75.2 °F94 %29.88 in10.0 miEast (80°)8.1 mphPartly Cloudy
9:58 PM76.8 °F75.9 °F97 %29.86 in10.0 miENE (60°)13.8 mph0.05 inScattered Clouds
10:02 PM77.0 °F75.2 °F94 %29.88 in10.0 miENE (60°)11.5 mphLight Drizzle
10:12 PM75.2 °F73.4 °F94 %29.89 in2.0 miEast (80°)8.1 mphRainHeavy Rain
10:17 PM75.2 °F73.4 °F94 %29.88 in2.5 miEast (80°)10.4 mphRainRain
10:22 PM75.2 °F73.4 °F94 %29.88 in5.0 miEast (90°)8.1 mphRainLight Rain
10:39 PM75.2 °F0.0 °F29.88 in10.0 miCalmMostly Cloudy
10:54 PM77.0 °F0.0 °F29.88 in10.0 miNE (40°)12.7 mphMostly Cloudy
10:58 PM77.0 °F0.0 °F29.84 in10.0 miNE (40°)13.8 mph0.12 inMostly Cloudy
11:03 PM77.0 °F0.0 °F29.87 in10.0 miNE (50°)12.7 mphMostly Cloudy
11:43 PM77.0 °F75.2 °F94 %29.87 in10.0 miNE (50°)15.0 mphMostly Cloudy
11:53 PM77.0 °F75.2 °F94 %29.87 in10.0 miENE (60°)16.1 mph21.9 mphMostly Cloudy
11:58 PM77.0 °F75.2 °F94 %29.84 in10.0 miNE (50°)15.0 mph23.0 mphMostly Cloudy
Hourly data recorded from PGUA, located miles away from Pyga Beach, Guam







STORIES FROM OUR PARTNERS